Location: Bassano
(45.7667°N, 11.7333°E)
Time: 20:58:53
(UTC+00:00)

Cosmos 1825 - Pass Details

Date: 07 June 2020
Orbit: 504 x 507 km, 82.5° (Epoch: 11 July)

Event Time Altitude Azimuth Distance (km) Brightness Sun altitude
Exits shadow 01:55:31 12° 178° (S) 1,599 4.2 -12.0°
Maximum altitude 01:58:58 67° 97° (E) 553 2.4 -11.7°
Drops below altitude 10° 02:02:43 10° 14° (NNE) 1,727 6.0 -11.3°
Sets 02:04:52 0° 12° (NNE) 2,617 7.0 -11.0°
